[Date Prev][Date Next][Thread Prev][Thread Next] - [Date Index][Thread Index][Author Index]

2 Line ISS Keps 12-7



ISS
1 25544U 98067A   04341.99292095  .00017753  00000-0  14265-3 0  3063
2 25544  51.6375 163.7606 0004349  81.0775  56.2221 15.71059399345465
----
Via the sarex mailing list at AMSAT.ORG courtesy of AMSAT-NA.
To unsubscribe, send "unsubscribe sarex" to Majordomo@amsat.org



AMSAT Top AMSAT Home